Location: Lixville
(37.5770°N, 89.9118°W)
Time: 12:43:02
(UTC+00:00)

SR - All Passes

Search period start: 07 November 2024 00:00
Search period end: 17 November 2024 00:00
Orbit: 575 x 857 km, 66.7° (Epoch: 06 November)

Date Brightness Start Highest point End Pass type
(mag) Time Alt. Az. Time Alt. Az. Time Alt. Az.
07 Nov - 05:20:36 10° S 05:24:33 41° ESE 05:28:41 10° NE night (unlit)
07 Nov - 07:03:31 10° W 07:06:32 18° NW 07:09:39 10° N night (unlit)
07 Nov - 14:01:00 10° N 14:05:16 25° NE 14:09:45 10° ESE daylight
07 Nov - 15:42:09 10° NW 15:47:15 47° WSW 15:52:38 10° S daylight
08 Nov - 04:29:04 10° SE 04:31:39 16° ESE 04:34:18 10° ENE night (unlit)
08 Nov - 06:08:58 10° SW 06:12:58 40° WNW 06:17:12 10° NNE night (unlit)
08 Nov - 13:09:15 10° NNE 13:11:32 13° NE 13:13:54 10° ENE daylight
08 Nov - 14:48:45 10° NNW 14:54:04 80° ENE 14:59:43 10° SSE daylight
08 Nov - 16:33:01 10° W 16:35:18 13° WSW 16:37:37 10° SW daylight
09 Nov - 05:15:29 10° SSW 05:19:41 78° ESE 05:24:08 10° NNE night (unlit)
09 Nov - 07:00:37 10° WNW 07:02:07 11° NW 07:03:39 10° NNW night (unlit)
09 Nov - 13:55:48 10° NNW 14:00:42 38° ENE 14:05:54 10° SE daylight
09 Nov - 15:37:49 10° NW 15:42:23 29° WSW 15:47:10 10° SSW daylight
10 Nov - 04:22:59 10° S 04:26:38 29° ESE 04:30:26 10° NE night (unlit)
10 Nov - 06:04:52 10° WSW 06:08:22 24° NW 06:12:03 10° N night (unlit)
10 Nov - 13:03:21 10° N 13:07:08 20° NE 13:11:04 10° E daylight
10 Nov - 14:44:02 10° NW 14:49:18 63° WSW 14:54:53 10° SSE daylight
11 Nov - 03:32:37 10° ESE 03:33:48 11° ESE 03:34:59 10° E night (unlit)
11 Nov - 05:10:44 10° SW 05:14:54 57° WNW 05:19:19 10° NNE night (unlit)
11 Nov - 13:50:47 10° NNW 13:56:02 61° ENE 14:01:37 10° SE daylight
11 Nov - 15:33:56 10° WNW 15:37:26 17° WSW 15:41:02 10° SW daylight
12 Nov - 04:17:34 10° S 04:21:40 54° ESE 04:26:01 10° NE night (unlit)
12 Nov - 06:01:17 10° W 06:03:51 15° NW 06:06:31 10° N night (unlit)
12 Nov - 12:57:58 10° N 13:02:35 30° NE 13:07:27 10° ESE daylight
12 Nov - 14:39:29 10° NW 14:44:27 38° WSW 14:49:39 10° S daylight
13 Nov - 03:25:32 10° SSE 03:28:42 21° ESE 03:31:58 10° ENE night (unlit)
13 Nov - 05:06:20 10° WSW 05:10:11 32° NW 05:14:16 10° N night (unlit)
13 Nov - 12:05:47 10° N 12:08:54 16° NE 12:12:07 10° E visible
13 Nov - 13:45:55 10° NNW 13:51:16 84° WSW 13:56:57 10° SSE daylight
14 Nov - 04:12:33 10° SSW 04:16:48 81° WNW 04:21:18 10° NNE night (unlit)
14 Nov - 12:52:48 10° NNW 12:57:55 47° ENE 13:03:21 10° SE daylight
14 Nov - 14:35:15 10° WNW 14:39:29 23° WSW 14:43:53 10° SSW daylight
15 Nov - 03:19:44 10° S 03:23:38 37° ESE 03:27:46 10° NE night (unlit)
15 Nov - 05:02:21 10° W 05:05:34 20° NW 05:08:56 10° N night (unlit)
15 Nov - 12:00:08 10° N 12:04:23 24° NE 12:08:48 10° ESE visible
15 Nov - 13:41:12 10° NW 13:46:24 51° WSW 13:51:54 10° S daylight
16 Nov - 02:28:21 10° SE 02:30:43 15° ESE 02:33:09 10° ENE night (unlit)
16 Nov - 04:07:53 10° SW 04:11:59 44° WNW 04:16:20 10° NNE night (unlit)
16 Nov - 11:08:27 10° NNE 11:10:34 12° NE 11:12:43 10° ENE visible
16 Nov - 12:47:47 10° NNW 12:53:09 75° ENE 12:58:50 10° SSE daylight
16 Nov - 14:31:40 10° WNW 14:34:25 14° WSW 14:37:14 10° SW daylight
